Погода в Добринке

Россия / Оренбургская область     52°38′17″N   54°39′04″E
темп.,
°C
ветер,
м/с
пор.,
м/с
влажн.,
%
обл.,
%
осадки,
мм/ч
давл.,
гПа
погр.,
м
27 января, ср
ср2723:00−9ю4893100 0.0 1033170
02:00−8ююв51094100 0.0 1033218
05:00−8ю4996100 0.0 1033200
08:00−10ююв5994100 0.0 1033199
11:00−7ююв51194100 0.0 1033297
14:00−6ююв5993100 0.0 1033325
17:00−7ююв5109598 0.0 1032248
20:00−9ююв5119468 0.0 1032217
28 января, чт
чт2823:00−9ююв5119462 0.0 1031216
02:00−9ююв51093100 0.0 1031243
05:00−11ююв5129198 0.0 1030246
08:00−11ююв41091100 0.0 1029216
11:00−11ююв51290100 0.0 1029289
14:00−9ююв51087100 0.0 1027334
17:00−9юв51190100 0.0 1026280
20:00−9юв51290100 0.0 1025246
29 января, пт
пт2923:00−9юв61289100 0.0 1024251
02:00−10юв51287100 0.0 1023250
05:00−9юв51286100 0.0 1022265
08:00−9юв71482100 0.0 1020271
11:00−7юв81580100 0.0 1019321
14:00−6юв81681100 0.0 1016445
17:00−5ююв81589100 0.1 1015571
20:00−5юв71395100 3.1 1014527
30 января, сб
сб3023:00−5юв71193100 3.6 1013440
02:00−5юв71293100 0.1 1012435
05:00−5ююв51195100 0.4 1012376
08:00−5ююв4795100 0.4 1012201
11:00−3ююз479796 0.4 1013309
14:00−1ююз589297 0.0 1014443
17:00−3ю6119599 0.0 1014337
20:00−4ю6139275 0.0 1015342
31 января, вс
вс3123:00−2ююз6119388 0.0 1016430
02:00−4ююз51193100 0.0 1017277
05:00−4ю4993100 0.0 1018235
08:00−6ююв469198 0.0 1018117
11:00−6ююв488999 0.0 1019167
14:00−4ююв51187100 0.0 1018282
17:00−5ююв41089100 0.0 1017241
20:00−6ююв51290100 0.0 1017215